Location: Utrecht
(52.0907°N, 5.1214°E)
Time: 06:27:04
(UTC+02:00)

SPROUT - Pass Details

Date: 03 July 2022
Orbit: 588 x 598 km, 97.9° (Epoch: 18 August)

Event Time Altitude Azimuth Distance (km) Brightness Sun altitude
Exits shadow 02:38:23 23° 189° (S) 1,255 ? -14.0°
Maximum altitude 02:40:45 55° 259° (W) 714 ? -13.9°
Drops below altitude 10° 02:44:52 10° 338° (NNW) 1,931 ? -13.8°
Sets 02:47:05 0° 343° (NNW) 2,839 ? -13.7°
